1414335631303,0.000181029
1414335691303,0.000182625
1414335751303,0.000184555
1414335811303,0.000183078
1414335871303,0.000183163
1414335931303,0.000183317
1414335991303,0.000183756
1414336051303,0.000181074
1414336111303,0.000182267
1414336171303,0.000183710
1414336231303,0.000183034
1414336291303,0.000185077
1414336351303,0.000183111
1414336411303,0.000184804
1414336471303,0.000187506
1414336531303,0.000190906
1414336591303,0.000188233
1414336651303,0.000184567
1414336711303,0.000187005
1414336771303,0.000185912
1414336831303,0.000185983
1414336891303,0.000184127
1414336951303,0.000184056
1414337011303,0.000185223
1414337071303,0.000182369
1414337131303,0.000186202
1414337191303,0.000185798
1414337251303,0.000185035
1414337311303,0.000183618
1414337371303,0.000184981
1414337431303,0.000185844
1414337491303,0.000183443
1414337551303,0.000181876
1414337611303,0.000182637
1414337671303,0.000182458
1414337731303,0.000182565
1414337791303,0.000182958
1414337851303,0.000183874
1414337911303,0.000183820
1414337971303,0.000185617
1414338031303,0.000184679
1414338091303,0.000184911
1414338151303,0.000183204
1414338211303,0.000184281
1414338271303,0.000185713
1414338331303,0.000184734
1414338391303,0.000182416
1414338451303,0.000184065
1414338511303,0.000183792
1414338571303,0.000182908
1414338631303,0.000183417
1414338691303,0.000182451
1414338751303,0.000187566
1414338811303,0.000189846
1414338871303,0.000186608
1414338931303,0.000185281
1414338991303,0.000187723
1414339051303,0.000184333
1414339111303,0.000183838
1414339171303,0.000183781
1414339231306,0.000182952
1414339291306,0.000183310
1414339351306,0.000180644
1414339411306,0.000182136
1414339471306,0.000184342
1414339531306,0.000182282
1414339591306,0.000182928
1414339651306,0.000183615
1414339711306,0.000182707
1414339771306,0.000180847
1414339831306,0.000182587
1414339891306,0.000182436
1414339951306,0.000182060
1414340011306,0.000184857
1414340071306,0.000196220
1414340131306,0.000192026
1414340191306,0.000186737
1414340251306,0.000184492
1414340311306,0.000185014
1414340371306,0.000186097
1414340431306,0.000183593
1414340491306,0.000182625
1414340551306,0.000182566
1414340611306,0.000182887
1414340671306,0.000181851
1414340731306,0.000181982
1414340791306,0.000181133
1414340851306,0.000182642
1414340911306,0.000183480
1414340971306,0.000183815
1414341031306,0.000183568
1414341091306,0.000182972
1414341151306,0.000181902
1414341211306,0.000182810
1414341271306,0.000182734
1414341331306,0.000180429
1414341391306,0.000182521
1414341451306,0.000181764
1414341511306,0.000182398
1414341571306,0.000183310
1414341631306,0.000181183
1414341691306,0.000179752
1414341751306,0.000179002
1414341811306,0.000179922
1414341871306,0.000178401
1414341931306,0.000180134
1414341991306,0.000182526
1414342051306,0.000180225
1414342111306,0.000181485
1414342171306,0.000183016
1414342231306,0.000180938
1414342291306,0.000179269
1414342351306,0.000180452
1414342411306,0.000181068
1414342471306,0.000181660
1414342531306,0.000179693
1414342591306,0.000180087
1414342651306,0.000180320
1414342711306,0.000181084
1414342771306,0.000178475
1414342831309,0.000177149
1414342891309,0.000179410
1414342951309,0.000179119
1414343011309,0.000178449
1414343071309,0.000179618
1414343131309,0.000181128
1414343191309,0.000181601
1414343251309,0.000178477
1414343311309,0.000184192
1414343371309,0.000195712
1414343431309,0.000197646
1414343491309,0.000201970
1414343551309,0.000200334
1414343611309,0.000198035
1414343671309,0.000194822
1414343731309,0.000193329
1414343791309,0.000187800
1414343851309,0.000186715
1414343911309,0.000184663
1414343971309,0.000186417
1414344031309,0.000186616
1414344091309,0.000185101
1414344151309,0.000182895
1414344211309,0.000183325
1414344271309,0.000182314
1414344331309,0.000182592
1414344391309,0.000180633
1414344451309,0.000181281
1414344511309,0.000180653
1414344571309,0.000180521
1414344631309,0.000180955
1414344691309,0.000178304
1414344751309,0.000179771
1414344811309,0.000176981
1414344871309,0.000179167
1414344931309,0.000178190
1414344991309,0.000178071
1414345051309,0.000177300
1414345111309,0.000178284
1414345171309,0.000177572
1414345231309,0.000177988
1414345291309,0.000177414
1414345351309,0.000178672
1414345411309,0.000177851
1414345471309,0.000179121
1414345531309,0.000180020
1414345591309,0.000179617
1414345651309,0.000179797
1414345711309,0.000181155
1414345771309,0.000180975
1414345831309,0.000178323
1414345891309,0.000179267
1414345951309,0.000179679
1414346011309,0.000178682
1414346071309,0.000177692
1414346131309,0.000180074
1414346191309,0.000183271
1414346251309,0.000186809
1414346311309,0.000187852
1414346371309,0.000181623
1414346431311,0.000180938
1414346491311,0.000179555
1414346551311,0.000181371
1414346611311,0.000180545
1414346671311,0.000180823
